www.pogodaiklimat.ru

Погода и климат >> Архив погоды >> Россия >> Хабаровский край >> Вяземский


ПОГОДА в Вяземском

  • Прогноз погоды в Вяземском
  • Монитор погоды в Вяземском

АРХИВ ПОГОДЫ в Вяземском

Время (UTC), дата Ветер
(напр.,м/с)
 
Видим.   Явления Облачность Т
(С)
Тd
(С)
f
(%)
Тe
(С)
Тes
(С)
Комфортность P
(гПа)
Po
(гПа)
Тmin
(С)
Tmax
(С)
R
(мм)
R24
(мм)
S
(см)
00 16.04 Ю 4 20 км ясно +16.3 -6.7 20 +16 +21 1003.8 993.3
03 16.04 Ю 4 20 км ясно +19.8 -6.0 17 +20 +29 1002.3 992.0
06 16.04 Ю 4
{11}
20 км 6/0
[Ci]
+20.5 -6.2 16 +20 +22 999.6 989.3
09 16.04 Ю 3
{11}
20 км 6/0
[Ci fib]
+19.7 -3.2 21 +20 +20 998.3 988.0 +21.8
12 16.04 ЮЗ 5 20 км 9/0
[Ac cast]
+18.8 -2.2 24 +19 +19 998.3 988.0
15 16.04 ЮЗ 5 20 км 9/0
[Cs]
+19.4 -2.3 23 +19 +19 999.6 989.3
18 16.04 З 1
{10}
20 км 8/0
[Ci fib]
+11.0 +1.5 52 +11 +11 1003.9 993.3
21 16.04 З 1
{10}
20 км 10/0
[Ci sp]
+7.4 -0.6 57 +7 +7 1005.5 994.7 +7.0
00 17.04 СВ 1 20 км 8/0
[Ci sp]
+11.6 -5.8 29 +12 +15 1006.7 996.0
03 17.04 СЗ 2 20 км 10/0
[Cs]
+16.5 -5.9 21 +17 +17 1005.2 994.7
06 17.04 СЗ 2 20 км 9/0
[Ci sp]
+21.1 -2.1 21 +20 +21 999.5 989.3
09 17.04 СВ 2
{5}
20 км 9/0
[Ci sp]
+17.8 -0.5 29 +18 +18 999.7 989.3 +21.8
12 17.04 СВ 1 20 км 4/0
[Ci sp]
+11.1 -0.4 45 +11 +11 998.6 988.0
15 17.04 Ю 3 20 км 9/9 600 м
[Cb cap]
+18.2 -3.9 22 +18 +18 997.0 986.7
18 17.04 Ю 4 20 км 8/6 600 м
[Cb cap Ci sp]
+18.2 -9.7 14 +18 +18 994.3 984.0
21 17.04 Ю 4
{14}
20 км 10/0
[Ac und]
+16.6 -10.1 15 +16 +16 994.4 984.0 +8.3
00 18.04 Ю 5
{13}
20 км 10/4 600 м
[Cb cap Ac und]
+15.6 -3.8 26 +15 +15 994.4 984.0
03 18.04 З 4
{13}
20 км 10/4 600 м
[Cb cap Ac und]
+8.8 0.0 54 +6 +6 998.7 988.0
06 18.04 З 6-11
{13}
20 км 10/3 600 м
[Cb cap Ac und]
+5.6 -2.5 56 +1 +1 1001.5 990.7
09 18.04 ЮЗ 7-15
{15}
20 км 9/8 600 м
[Sc diur, vesp Ac trans]
+2.2 -5.2 58 -4 -4 1004.3 993.3 +16.6
12 18.04 ЮЗ 4
{15}
20 км 8/5 600 м
[Sc diur, vesp Ac trans]
+0.3 -4.9 68 -5 -5 1005.5 994.4
15 18.04 З 4
{11}
20 км 8/3 600 м
[Sc diur, vesp Ac trans]
-1.4 -2.0 96 -7 -7 1007.2 996.0
18 18.04 З 6-10
{11}
20 км 8/0
[Ac trans]
+0.5 -9.7 46 -5 -5 1005.4 994.3
21 18.04 З 6
{13}
20 км {ливн. осадки} 10/4 600 м
[Cb cap Ac trans]
-0.5 -10.2 48 -7 -6 1005.8 994.7 -1.4 1 3
00 19.04 З 6-11
{12}
20 км {ливн. осадки} 10/3 600 м
[Cb cap Ac As]
-0.1 -8.4 54 -6 -5 1007.5 996.4
03 19.04 З 6-10
{11}
20 км {ливн. осадки} 10/8 600 м
[Cb cap Ac trans]
+2.0 -6.1 55 -3 -3 1009.8 998.7
06 19.04 З 5-10
{11}
20 км {ливн. осадки} 10/4 600 м
[Cb cap Ac trans]
+3.3 -4.4 57 -1 -1 1011.0 1000.0
09 19.04 З 1
{10}
10 км слаб. ливневой снег 10/10 600 м
[Cb cap]
+1.0 -0.3 91 -1 -1 1012.4 1001.3 +3.7 0.0
12 19.04 З 3 20 км {ливн. осадки} 5/4 600 м
[Sc Ac lent]
+2.3 -5.0 58 -1 -1 1011.7 1000.6
15 19.04 З 2 20 км {ливн. осадки} 6/3 600 м
[Sc Ac trans]
+0.3 -5.1 67 -3 -3 1013.9 1002.7
18 19.04 Ю 2 20 км 4/0
[Ac trans]
-2.3 -5.9 76 -6 -6 1014.0 1002.7
21 19.04 ЮЗ 1 20 км ясно -1.9 -6.9 69 -4 -3 1013.1 1001.9 -3.1 0.0
00 20.04 З 2 20 км ясно +3.8 -6.8 46 +2 +10 опасность
простуды
1013.7 1002.7
03 20.04 СЗ 2 20 км 1/1 600 м
[Cu hum]
+8.2 -7.1 33 +7 +21 опасность
простуды
1012.2 1001.3
06 20.04 З 1 20 км 2 балла +11.5 -6.8 27 +12 +20 1009.4 998.7
09 20.04 штиль 0 20 км 4/1 600 м
[Sc diur, vesp Ci]
+10.8 -8.4 25 +11 +11 1006.7 996.0 +11.8
12 20.04 ЮЗ 1 20 км 7 баллов +6.0 -7.6 37 +6 +6 1008.2 997.3
15 20.04 штиль 0 20 км 10 баллов +5.1 -7.1 41 +5 +5 1005.6 994.7
18 20.04 ЮЗ 2 20 км 10 баллов +9.2 -3.7 40 +8 +8 1004.0 993.3
21 20.04 ЮЗ 4 20 км 1/0
[Ac lent]
+5.8 -5.5 44 +3 +3 1005.7 994.9 +3.9
00 21.04 З 5 20 км ясно +8.6 -4.6 39 +6 +10 1009.5 998.7
03 21.04 З 5-13
{13}
20 км 4/4 600 м
[Cu med, cong]
+11.8 -9.8 21 +10 +15 1009.4 998.7
06 21.04 З 5-11
{14}
20 км 5/5 600 м
[Cu med, cong]
+12.1 -10.2 20 +10 +13 1009.4 998.7
09 21.04 З 3
{13}
20 км 1/1 600 м
[Cu med, cong]
+10.5 -12.1 19 +9 +10 1010.8 1000.0 +12.4
12 21.04 ЮЗ 1 20 км ясно +3.1 -8.9 41 +2 +2 1012.4 1001.3
15 21.04 ЮЗ 1 20 км ясно -1.1 -9.7 52 -3 -3 1013.9 1002.7
18 21.04 Ю 2 20 км ясно -0.9 -10.3 49 -4 -4 1015.3 1004.0
21 21.04 штиль 0 20 км ясно -1.0 -7.8 60 -2 -1 1015.6 1004.4 -4.3
00 22.04 З 4 20 км ясно +10.2 -11.2 21 +8 +14 1017.5 1006.7
03 22.04 З 4 20 км ясно +13.0 -12.2 16 +12 +22 1017.4 1006.7
06 22.04 З 3 20 км 2 балла +14.2 -13.8 13 +14 +20 1014.7 1004.0
09 22.04 СЗ 1 20 км 3/0
[Ci sp]
+13.6 -11.0 17 +14 +15 1014.7 1004.0 +14.7
12 22.04 ЮВ 1 20 км 2 балла +7.4 -9.9 28 +7 +7 1014.9 1004.0
15 22.04 ЮВ 2 20 км 1 балл +5.6 -11.0 29 +4 +4 1012.3 1001.3
21 22.04 Ю 4-10
{14}
20 км 10/10 600 м
[Cb cap]
+10.5 -3.0 39 +9 +9 1008.3 997.6 +4.4

 

Местоположение метеостанции Вяземский (Хабаровский край, Россия): широта 47.52 долгота 134.70 высота над уровнем моря 89 м.

В архиве по умолчанию представлена погода в Вяземском за последнюю неделю. Архивные данные за месяц целиком и за предыдущие месяцы, начиная с января 2011 года, Вы можете получить, выбрав интересующий диапазон дат из раскрывающегося списка и нажав кнопку "Ввод!".


*Определитесь, кто Вы:
робот инопланетянин человек

Внимание! Время в таблицах - всемирное. Для получения местного времени необходимо прибавить поправку, которая равна 10 ч.

Смотрите также архив погоды в соседних городах и на ближайших метеорологических станциях:

Погода в Хоре (Хабаровский край, Россия) (43 км)
Погода в Лермонтовке (Хабаровский край, Россия) (51 км)
Погода в Георгиевке (Хабаровский край, Россия) (61 км)
Погода в Бичевой (Хабаровский край, Россия) (73 км)
Погода в Бычихе (Хабаровский край, Россия) (87 км)
Погода в Бикине (Хабаровский край, Россия) (89 км)
Погода в Оборе (Хабаровский край, Россия) (93 км)
Погода в Гвасюгах (Хабаровский край, Россия) (106 км)
Погода в Хабаровске Аэр. Большой (Хабаровский край, Россия) (108 км)
Погода в Хабаровске АМС (Хабаровский край, Россия) (112 км)

Пояснения к столбцам:

Ветер - указаны скорость ветра в м/с - средняя за 10 мин, порывы в срок и между сроками (в фигурных скобках) и направление, откуда дует ветер: С - северный, СВ - северо-восточный, В - восточный, ЮВ - юго-восточный, Ю - южный, ЮЗ - юго-западный, З - западный, СЗ - северо-западный.
Видимость - горизонтальная дальность видимости в метрах или километрах. При видимости от 1 до 10 км при отсутствии осадков обычно наблюдается дымка, при ухудшении видимости до 1 км и менее - туман. В сухую погоду видимость может ухудшаться дымом, пылью или мглою.
Явления - указаны атмосферные явления, наблюдавшиеся в срок или в последний час перед сроком; фигурными скобками обозначены явления, наблюдавшиеся между сроками (за 1-3 часа до срока); квадратными скобками обозначены град или гололедные отложения с указанием их диаметра в мм.
Облачность - указаны через наклонную черту общая и нижняя облачность в баллах и высота нижней границы облаков в метрах; квадратными скобками обозначены формы облаков: Ci - перистые, Cs - перисто-слоистые, Cc - перисто-кучевые, Ac - высококучевые, As - высокослоистые, Sc - слоисто-кучевые, Ns - слоисто-дождевые, Cu - кучевые, Cb - кучево-дождевые. Подробнее классификацию облаков см. в Атласе облаков (PDF).
T - Температура воздуха - температура, измеренная на высоте 2 м над землей.
Td - Температура точки росы - температура, при понижении до которой содержащийся в воздухе водяной пар достигнет насыщения.
f - Относительная влажность воздуха - влажноcть воздуха, измеренная на высоте 2 м над землей.
Te - Эффективная температура - температура, которую ощущает одетый по сезону человек в тени. Характеристика душности погоды. При расчете учитывается влияние влажности воздуха и скорости ветра на теплоощущения человека.
Tes - Эффективная температура на солнце - температура, которую ощущает человек, с поправкой на солнечный нагрев. Характеристика знойности погоды. Зависит от высоты солнца над горизонтом, облачности и скорости ветра. Ночью, в пасмурную погоду, а также при ветре 12 м/с и более поправка равна нулю.
P - Атмосферное давление - приведенное к уровню моря атмосферное давление.
Po - Атмосферное давление - измеренное на уровне метеостанции атмосферное давление.
Tmin - Минимальная температура - минимум температуры воздуха на высоте 2 м над землей.
Tmax - Максимальная температура - максимум температуры воздуха на высоте 2 м над землей.
R - Количество осадков - Количество выпавших осадков за период времени, мм. При наведении курсора мыши на число - период времени, за который выпало указанное количество осадков.
R24 - Количество осадков - Количество выпавших осадков за 24 часа, мм.
S - Снежный покров - Высота снежного покрова, см. При наведении курсора мыши на число - состояние снежного покрова и степень покрытия местности в баллах.